DLH6CH EDDF-EGLL

Flight info

Callsign DLH6CH
Flight time 1h 10m
Altitude 36000
Route OBOKA3W/25C OBOKA Z29 TORNU DCT ABNED L980 LOGAN
Aircraft A321/M-SDE2E3FGIJ1LORWXYZ/HB1

Departure

Time 2026-05-06 17:04
Airport Frankfurt Main Airport (EDDF)

Arrival

Time 2026-05-06 18:14
Airport London Heathrow Airport (EGLL)
Time Latitude Longitude Altitude Speed Heading
2026-05-06 16:14 50.04852 8.56946 362 ft 0 kts 295°
2026-05-06 16:25 50.04852 8.56947 361 ft 0 kts 295°
2026-05-06 16:51 50.04846 8.56965 359 ft 4 kts 302°
2026-05-06 16:51 50.04834 8.56995 361 ft 2 kts 295°
2026-05-06 16:51 50.04827 8.57031 361 ft 4 kts 266°
2026-05-06 16:51 50.04835 8.57063 362 ft 4 kts 207°
2026-05-06 16:52 50.04830 8.57060 361 ft 4 kts 205°
2026-05-06 16:52 50.04806 8.57043 361 ft 4 kts 205°
2026-05-06 16:52 50.04781 8.57026 359 ft 4 kts 205°
2026-05-06 16:52 50.04757 8.57008 361 ft 4 kts 205°
2026-05-06 16:53 50.04732 8.56991 365 ft 4 kts 205°
2026-05-06 16:53 50.04708 8.56974 361 ft 4 kts 205°
2026-05-06 16:53 50.04683 8.56956 363 ft 4 kts 205°
2026-05-06 16:53 50.04660 8.56940 363 ft 2 kts 205°
2026-05-06 16:56 50.04653 8.56935 362 ft 4 kts 205°
2026-05-06 16:57 50.04616 8.56914 360 ft 6 kts 196°
2026-05-06 16:57 50.04581 8.56903 362 ft 4 kts 192°
2026-05-06 16:57 50.04547 8.56891 362 ft 7 kts 193°
2026-05-06 16:57 50.04488 8.56870 359 ft 11 kts 193°
2026-05-06 16:58 50.04405 8.56845 362 ft 12 kts 189°
2026-05-06 16:58 50.04330 8.56825 359 ft 10 kts 186°
2026-05-06 16:58 50.04282 8.56866 361 ft 7 kts 115°
2026-05-06 16:58 50.04286 8.56942 363 ft 12 kts 73°
2026-05-06 16:59 50.04327 8.57111 362 ft 19 kts 70°
2026-05-06 16:59 50.04376 8.57316 362 ft 22 kts 69°
2026-05-06 16:59 50.04432 8.57545 363 ft 24 kts 69°
2026-05-06 16:59 50.04489 8.57792 361 ft 25 kts 69°
2026-05-06 17:00 50.04555 8.58054 360 ft 26 kts 70°
2026-05-06 17:00 50.04618 8.58329 361 ft 27 kts 66°
2026-05-06 17:00 50.04657 8.58527 365 ft 8 kts 109°
2026-05-06 17:00 50.04646 8.58545 361 ft 0 kts 138°
2026-05-06 17:01 50.04613 8.58583 362 ft 12 kts 153°
2026-05-06 17:01 50.04535 8.58619 366 ft 10 kts 178°
2026-05-06 17:01 50.04475 8.58541 364 ft 13 kts 249°
2026-05-06 17:02 50.04459 8.58476 364 ft 0 kts 250°
2026-05-06 17:02 50.04459 8.58474 364 ft 1 kts 249°
2026-05-06 17:02 50.04459 8.58473 364 ft 0 kts 249°
2026-05-06 17:02 50.04458 8.58471 364 ft 1 kts 249°
2026-05-06 17:03 50.04453 8.58450 365 ft 0 kts 249°
2026-05-06 17:03 50.04444 8.58415 364 ft 23 kts 249°
2026-05-06 17:03 50.04284 8.57743 360 ft 109 kts 250°
2026-05-06 17:03 50.03930 8.56287 407 ft 173 kts 251°
2026-05-06 17:04 50.03494 8.54588 1231 ft 167 kts 249°
2026-05-06 17:04 50.03098 8.52886 1771 ft 166 kts 252°
2026-05-06 17:04 50.02727 8.51176 2192 ft 172 kts 250°
2026-05-06 17:04 50.02050 8.49515 2342 ft 194 kts 225°
2026-05-06 17:05 50.00888 8.48324 2592 ft 207 kts 201°
2026-05-06 17:05 49.99473 8.47878 3213 ft 207 kts 188°
2026-05-06 17:05 49.98048 8.47565 3845 ft 207 kts 188°
2026-05-06 17:05 49.96622 8.47243 4480 ft 208 kts 189°
2026-05-06 17:06 49.95206 8.46701 4965 ft 215 kts 197°
2026-05-06 17:06 49.93699 8.45999 5153 ft 236 kts 197°
2026-05-06 17:06 49.92157 8.45003 5695 ft 243 kts 212°
2026-05-06 17:06 49.90877 8.43281 6437 ft 246 kts 230°
2026-05-06 17:07 49.89939 8.41041 7126 ft 249 kts 238°
2026-05-06 17:07 49.89087 8.38678 7825 ft 253 kts 246°
2026-05-06 17:07 49.88638 8.36006 8437 ft 264 kts 263°
2026-05-06 17:07 49.88696 8.33092 8787 ft 282 kts 274°
2026-05-06 17:08 49.88873 8.30035 9432 ft 287 kts 274°
2026-05-06 17:08 49.89272 8.26978 10081 ft 293 kts 288°
2026-05-06 17:08 49.90199 8.24121 10496 ft 308 kts 303°
2026-05-06 17:08 49.91510 8.21343 10631 ft 330 kts 305°
2026-05-06 17:09 49.92911 8.18427 11002 ft 341 kts 305°
2026-05-06 17:09 49.94441 8.15588 11586 ft 346 kts 314°
2026-05-06 17:09 49.96267 8.13108 12186 ft 351 kts 318°
2026-05-06 17:09 49.98134 8.10636 12678 ft 355 kts 318°
2026-05-06 17:10 50.00008 8.08140 12804 ft 355 kts 318°
2026-05-06 17:10 50.01880 8.05640 12818 ft 355 kts 317°
2026-05-06 17:10 50.03751 8.03133 12817 ft 355 kts 317°
2026-05-06 17:10 50.05617 8.00629 12818 ft 355 kts 317°
2026-05-06 17:11 50.07485 7.98115 12826 ft 355 kts 317°
2026-05-06 17:11 50.09347 7.95606 12827 ft 355 kts 317°
2026-05-06 17:11 50.11212 7.93092 12824 ft 355 kts 317°
2026-05-06 17:11 50.13076 7.90577 12830 ft 355 kts 317°
2026-05-06 17:12 50.14943 7.88057 12821 ft 354 kts 317°
2026-05-06 17:12 50.16806 7.85541 12835 ft 355 kts 317°
2026-05-06 17:12 50.18674 7.83018 12831 ft 355 kts 317°
2026-05-06 17:12 50.20539 7.80493 12833 ft 355 kts 317°
2026-05-06 17:13 50.22399 7.77978 12834 ft 354 kts 317°
2026-05-06 17:13 50.24265 7.75462 12828 ft 354 kts 319°
2026-05-06 17:13 50.26310 7.73299 12829 ft 356 kts 330°
2026-05-06 17:13 50.28570 7.71684 12832 ft 357 kts 335°
2026-05-06 17:14 50.30850 7.70137 12830 ft 357 kts 335°
2026-05-06 17:14 50.33129 7.68580 12833 ft 357 kts 334°
2026-05-06 17:14 50.35406 7.67019 12829 ft 357 kts 334°
2026-05-06 17:14 50.37682 7.65453 12830 ft 357 kts 334°
2026-05-06 17:15 50.39956 7.63889 12831 ft 357 kts 334°
2026-05-06 17:15 50.42230 7.62326 12827 ft 356 kts 334°
2026-05-06 17:15 50.44506 7.60768 12829 ft 356 kts 334°
2026-05-06 17:15 50.46776 7.59207 12833 ft 356 kts 334°
2026-05-06 17:16 50.49045 7.57639 12833 ft 356 kts 334°
2026-05-06 17:16 50.51316 7.56068 12833 ft 356 kts 334°
2026-05-06 17:16 50.53585 7.54499 12846 ft 358 kts 334°
2026-05-06 17:16 50.55873 7.52841 13209 ft 368 kts 330°
2026-05-06 17:17 50.58103 7.50665 13369 ft 387 kts 324°
2026-05-06 17:17 50.60405 7.48274 13490 ft 406 kts 324°
2026-05-06 17:17 50.62799 7.45794 13817 ft 417 kts 325°
2026-05-06 17:17 50.65245 7.43279 14366 ft 421 kts 326°
2026-05-06 17:18 50.67711 7.40753 14972 ft 424 kts 326°
2026-05-06 17:18 50.70189 7.38215 15572 ft 427 kts 326°
2026-05-06 17:18 50.72580 7.35422 16125 ft 429 kts 317°
2026-05-06 17:18 50.74656 7.32030 16566 ft 430 kts 308°
2026-05-06 17:19 50.76341 7.28124 16999 ft 432 kts 298°
2026-05-06 17:19 50.77722 7.23898 17409 ft 434 kts 296°
2026-05-06 17:19 50.79099 7.19638 17828 ft 436 kts 296°
2026-05-06 17:19 50.80486 7.15365 18212 ft 439 kts 296°
2026-05-06 17:20 50.81889 7.11058 18559 ft 441 kts 296°
2026-05-06 17:20 50.83299 7.06732 18919 ft 444 kts 296°
2026-05-06 17:20 50.84712 7.02381 19258 ft 446 kts 296°
2026-05-06 17:20 50.86131 6.97994 19616 ft 449 kts 296°
2026-05-06 17:21 50.87559 6.93571 19990 ft 452 kts 296°
2026-05-06 17:21 50.88990 6.89132 20357 ft 454 kts 296°
2026-05-06 17:21 50.90426 6.84665 20708 ft 456 kts 296°
2026-05-06 17:21 50.91864 6.80175 21056 ft 458 kts 296°
2026-05-06 17:22 50.93309 6.75651 21409 ft 461 kts 296°
2026-05-06 17:22 50.94759 6.71107 21752 ft 463 kts 295°
2026-05-06 17:22 50.96212 6.66547 22078 ft 465 kts 295°
2026-05-06 17:22 50.97671 6.61955 22408 ft 467 kts 295°
2026-05-06 17:23 50.99141 6.57331 22716 ft 469 kts 295°
2026-05-06 17:23 51.00613 6.52701 23015 ft 471 kts 296°
2026-05-06 17:23 51.02089 6.48040 23294 ft 473 kts 295°
2026-05-06 17:23 51.03566 6.43365 23553 ft 475 kts 295°
2026-05-06 17:24 51.05046 6.38669 23777 ft 476 kts 295°
2026-05-06 17:24 51.06528 6.33955 24077 ft 476 kts 295°
2026-05-06 17:24 51.08001 6.29255 24414 ft 474 kts 295°
2026-05-06 17:24 51.09468 6.24570 24733 ft 473 kts 295°
2026-05-06 17:25 51.10932 6.19887 25062 ft 472 kts 295°
2026-05-06 17:25 51.12391 6.15223 25389 ft 471 kts 295°
2026-05-06 17:25 51.13766 6.10513 25691 ft 469 kts 289°
2026-05-06 17:25 51.14741 6.05570 26005 ft 466 kts 282°
2026-05-06 17:26 51.15544 6.00578 26334 ft 465 kts 282°
2026-05-06 17:26 51.16347 5.95597 26681 ft 464 kts 282°
2026-05-06 17:26 51.17149 5.90629 27023 ft 463 kts 282°
2026-05-06 17:26 51.17681 5.87338 27278 ft 461 kts 282°
2026-05-06 17:27 51.18573 5.82540 28374 ft 444 kts 288°
2026-05-06 17:27 51.19734 5.78086 29628 ft 425 kts 290°
2026-05-06 17:27 51.20865 5.73859 30785 ft 405 kts 289°
2026-05-06 17:27 51.21934 5.69841 31901 ft 384 kts 289°
2026-05-06 17:28 51.22960 5.65964 32593 ft 376 kts 288°
2026-05-06 17:28 51.23966 5.62124 32956 ft 374 kts 288°
2026-05-06 17:28 51.24964 5.58295 33228 ft 374 kts 288°
2026-05-06 17:28 51.25963 5.54449 33454 ft 376 kts 288°
2026-05-06 17:29 51.26968 5.50585 33682 ft 377 kts 288°
2026-05-06 17:29 51.27978 5.46706 33903 ft 379 kts 288°
2026-05-06 17:29 51.28993 5.42813 34091 ft 380 kts 288°
2026-05-06 17:29 51.30009 5.38905 34269 ft 382 kts 288°
2026-05-06 17:30 51.31027 5.34981 34438 ft 384 kts 288°
2026-05-06 17:30 51.32052 5.31028 34573 ft 386 kts 288°
2026-05-06 17:30 51.33083 5.27055 34730 ft 388 kts 288°
2026-05-06 17:30 51.34116 5.23064 34881 ft 389 kts 288°
2026-05-06 17:31 51.35151 5.19055 35034 ft 391 kts 289°
2026-05-06 17:31 51.36192 5.15020 35187 ft 393 kts 289°
2026-05-06 17:31 51.37233 5.10975 35340 ft 394 kts 289°
2026-05-06 17:31 51.38273 5.06911 35507 ft 395 kts 289°
2026-05-06 17:32 51.39315 5.02831 35639 ft 397 kts 289°
2026-05-06 17:32 51.40363 4.98734 35794 ft 398 kts 289°
2026-05-06 17:32 51.41414 4.94617 35897 ft 401 kts 289°
2026-05-06 17:33 51.43540 4.86258 35931 ft 410 kts 289°
2026-05-06 17:33 51.45719 4.77670 36008 ft 423 kts 290°
2026-05-06 17:34 51.47971 4.68781 35921 ft 436 kts 290°
2026-05-06 17:34 51.50271 4.59660 35898 ft 445 kts 290°
2026-05-06 17:35 51.52601 4.50383 35895 ft 450 kts 290°
2026-05-06 17:35 51.54936 4.41052 35895 ft 450 kts 290°
2026-05-06 17:36 51.58409 4.27016 35896 ft 450 kts 290°
2026-05-06 17:36 51.60716 4.17653 35922 ft 451 kts 290°
2026-05-06 17:37 51.63026 4.08261 35919 ft 451 kts 290°
2026-05-06 17:37 51.65334 3.98864 35925 ft 452 kts 290°
2026-05-06 17:38 51.67636 3.89446 35923 ft 452 kts 290°
2026-05-06 17:38 51.69926 3.80021 35942 ft 451 kts 290°
2026-05-06 17:39 51.72200 3.70594 35944 ft 450 kts 290°
2026-05-06 17:39 51.74462 3.61183 35946 ft 450 kts 290°
2026-05-06 17:40 51.76720 3.51774 35948 ft 450 kts 290°
2026-05-06 17:40 51.78968 3.42363 35960 ft 449 kts 289°
2026-05-06 17:41 51.81206 3.32958 35966 ft 448 kts 289°
2026-05-06 17:41 51.83413 3.23580 35970 ft 446 kts 288°
2026-05-06 17:42 51.84537 3.13799 35965 ft 443 kts 270°
2026-05-06 17:42 51.84053 3.03888 35971 ft 442 kts 263°
2026-05-06 17:43 51.83415 2.94111 35941 ft 429 kts 264°
2026-05-06 17:43 51.82787 2.84529 35950 ft 428 kts 264°
2026-05-06 17:44 51.82151 2.74975 35952 ft 428 kts 264°
2026-05-06 17:44 51.81500 2.65406 35394 ft 430 kts 264°
2026-05-06 17:45 51.81170 2.60609 34895 ft 427 kts 264°
2026-05-06 17:45 51.80841 2.55866 34419 ft 423 kts 264°
2026-05-06 17:45 51.80510 2.51154 33934 ft 420 kts 264°
2026-05-06 17:45 51.80179 2.46484 33417 ft 416 kts 264°
2026-05-06 17:46 51.79853 2.41866 32956 ft 411 kts 264°
2026-05-06 17:46 51.79530 2.37302 32490 ft 407 kts 263°
2026-05-06 17:46 51.79208 2.32787 32026 ft 402 kts 263°
2026-05-06 17:46 51.78889 2.28332 31567 ft 397 kts 263°
2026-05-06 17:47 51.78573 2.23918 30945 ft 396 kts 263°
2026-05-06 17:47 51.78260 2.19415 29739 ft 410 kts 264°
2026-05-06 17:47 51.77980 2.14878 29403 ft 400 kts 264°
2026-05-06 17:47 51.77727 2.10462 29117 ft 390 kts 264°
2026-05-06 17:48 51.77488 2.06153 28836 ft 381 kts 264°
2026-05-06 17:48 51.77271 2.01865 26609 ft 403 kts 269°
2026-05-06 17:48 51.77126 1.97100 23428 ft 456 kts 271°
2026-05-06 17:48 51.77083 1.91654 20867 ft 486 kts 272°
2026-05-06 17:49 51.77099 1.86614 22491 ft 419 kts 273°
2026-05-06 17:49 51.77113 1.82084 22865 ft 392 kts 271°
2026-05-06 17:49 51.76845 1.77792 22608 ft 378 kts 263°
2026-05-06 17:49 51.76409 1.73720 22597 ft 359 kts 263°
2026-05-06 17:50 51.75942 1.69882 22280 ft 351 kts 262°
2026-05-06 17:50 51.75454 1.66027 22075 ft 340 kts 263°
2026-05-06 17:50 51.75014 1.62324 22033 ft 337 kts 263°
2026-05-06 17:50 51.74590 1.58574 22030 ft 340 kts 265°
2026-05-06 17:51 51.74307 1.54790 22045 ft 340 kts 269°
2026-05-06 17:51 51.74096 1.50979 21732 ft 341 kts 268°
2026-05-06 17:51 51.73839 1.47188 21378 ft 339 kts 268°
2026-05-06 17:51 51.73612 1.43419 20973 ft 338 kts 268°
2026-05-06 17:52 51.73399 1.39492 20625 ft 363 kts 269°
2026-05-06 17:52 51.73196 1.35376 20322 ft 369 kts 269°
2026-05-06 17:52 51.73007 1.31298 19985 ft 359 kts 269°
2026-05-06 17:52 51.72834 1.27338 19614 ft 349 kts 269°
2026-05-06 17:53 51.72682 1.23316 17924 ft 375 kts 270°
2026-05-06 17:53 51.72492 1.19068 17080 ft 378 kts 267°
2026-05-06 17:53 51.72140 1.14863 16160 ft 380 kts 264°
2026-05-06 17:53 51.71713 1.10757 15964 ft 362 kts 264°
2026-05-06 17:54 51.71322 1.06842 15794 ft 345 kts 265°
2026-05-06 17:54 51.70963 1.03106 15621 ft 331 kts 265°
2026-05-06 17:54 51.70620 0.99409 15517 ft 341 kts 265°
2026-05-06 17:54 51.70303 0.95513 15472 ft 359 kts 268°
2026-05-06 17:55 51.70086 0.91374 15054 ft 385 kts 269°
2026-05-06 17:55 51.69926 0.86923 14519 ft 409 kts 270°
2026-05-06 17:55 51.69818 0.82393 13979 ft 398 kts 271°
2026-05-06 17:55 51.69760 0.78012 13414 ft 386 kts 273°
2026-05-06 17:56 51.69716 0.73809 12881 ft 362 kts 272°
2026-05-06 17:56 51.69660 0.69860 12235 ft 342 kts 272°
2026-05-06 17:56 51.69592 0.66177 11692 ft 319 kts 272°
2026-05-06 17:56 51.69520 0.62646 11344 ft 310 kts 272°
2026-05-06 17:57 51.69450 0.59244 11089 ft 299 kts 272°
2026-05-06 17:57 51.69353 0.55955 10840 ft 289 kts 272°
2026-05-06 17:57 51.69174 0.52774 10540 ft 283 kts 265°
2026-05-06 17:57 51.68859 0.49672 10181 ft 279 kts 266°
2026-05-06 17:58 51.68551 0.46568 9617 ft 282 kts 265°
2026-05-06 17:58 51.68216 0.43476 9224 ft 278 kts 264°
2026-05-06 17:58 51.67851 0.40442 8855 ft 274 kts 264°
2026-05-06 17:58 51.67493 0.37461 8325 ft 276 kts 265°
2026-05-06 17:59 51.67175 0.34398 7816 ft 278 kts 265°
2026-05-06 17:59 51.66834 0.31395 7813 ft 274 kts 263°
2026-05-06 17:59 51.66454 0.28318 7889 ft 278 kts 263°
2026-05-06 17:59 51.66083 0.25257 7978 ft 279 kts 263°
2026-05-06 18:00 51.65714 0.22233 8040 ft 280 kts 263°
2026-05-06 18:00 51.65304 0.19130 7980 ft 279 kts 262°
2026-05-06 18:00 51.64889 0.16123 7950 ft 279 kts 262°
2026-05-06 18:00 51.64490 0.13080 7962 ft 278 kts 262°
2026-05-06 18:01 51.64066 0.10029 8057 ft 279 kts 261°
2026-05-06 18:01 51.63633 0.06934 8036 ft 279 kts 262°
2026-05-06 18:01 51.63202 0.03885 7996 ft 279 kts 262°
2026-05-06 18:01 51.62773 0.00885 7979 ft 279 kts 261°
2026-05-06 18:02 51.62335 -0.02153 8002 ft 278 kts 263°
2026-05-06 18:02 51.62033 -0.04195 7999 ft 277 kts 262°
2026-05-06 18:02 51.61405 -0.08187 8012 ft 277 kts 263°
2026-05-06 18:02 51.60957 -0.11201 8031 ft 278 kts 262°
2026-05-06 18:03 51.60514 -0.14269 8059 ft 278 kts 262°
2026-05-06 18:03 51.60082 -0.17303 7933 ft 278 kts 264°
2026-05-06 18:03 51.59621 -0.20268 7850 ft 276 kts 262°
2026-05-06 18:03 51.59157 -0.23316 7833 ft 277 kts 263°
2026-05-06 18:04 51.58706 -0.26283 7443 ft 276 kts 261°
2026-05-06 18:04 51.58215 -0.29255 7063 ft 273 kts 260°
2026-05-06 18:04 51.57744 -0.32228 6836 ft 265 kts 261°
2026-05-06 18:04 51.57313 -0.34989 6929 ft 245 kts 263°
2026-05-06 18:05 51.56896 -0.37553 6920 ft 239 kts 263°
2026-05-06 18:05 51.56489 -0.40113 6764 ft 235 kts 265°
2026-05-06 18:05 51.56140 -0.42662 6717 ft 234 kts 266°
2026-05-06 18:05 51.55805 -0.45218 6792 ft 233 kts 266°
2026-05-06 18:06 51.55475 -0.47784 6905 ft 237 kts 266°
2026-05-06 18:06 51.55147 -0.50365 6832 ft 235 kts 267°
2026-05-06 18:06 51.54823 -0.52965 6370 ft 239 kts 266°
2026-05-06 18:06 51.54501 -0.55542 6055 ft 235 kts 266°
2026-05-06 18:07 51.54201 -0.58126 5597 ft 236 kts 267°
2026-05-06 18:07 51.53915 -0.60697 5311 ft 232 kts 267°
2026-05-06 18:07 51.53600 -0.63235 4929 ft 230 kts 265°
2026-05-06 18:07 51.53292 -0.65702 4604 ft 224 kts 267°
2026-05-06 18:08 51.52962 -0.68122 4244 ft 219 kts 266°
2026-05-06 18:08 51.52612 -0.70470 3942 ft 214 kts 264°
2026-05-06 18:08 51.52268 -0.72725 3762 ft 201 kts 268°
2026-05-06 18:08 51.52041 -0.74162 3742 ft 193 kts 269°
2026-05-06 18:09 51.51715 -0.76237 3776 ft 188 kts 268°
2026-05-06 18:09 51.51192 -0.78110 3323 ft 193 kts 238°
2026-05-06 18:09 51.49982 -0.79110 2891 ft 203 kts 192°
2026-05-06 18:09 51.48610 -0.78603 2878 ft 207 kts 155°
2026-05-06 18:10 51.47722 -0.76904 2701 ft 198 kts 112°
2026-05-06 18:10 51.47597 -0.74741 2749 ft 193 kts 92°
2026-05-06 18:10 51.47620 -0.72615 2651 ft 188 kts 96°
2026-05-06 18:10 51.47637 -0.70540 2554 ft 185 kts 94°
2026-05-06 18:11 51.47644 -0.68516 2460 ft 176 kts 97°
2026-05-06 18:11 51.47668 -0.66583 2183 ft 170 kts 97°
2026-05-06 18:11 51.47684 -0.64736 1953 ft 162 kts 99°
2026-05-06 18:11 51.47668 -0.62984 1780 ft 151 kts 99°
2026-05-06 18:12 51.47676 -0.61308 1555 ft 149 kts 97°
2026-05-06 18:12 51.47709 -0.59659 1355 ft 147 kts 97°
2026-05-06 18:12 51.47732 -0.58031 1195 ft 147 kts 101°
2026-05-06 18:12 51.47739 -0.56390 975 ft 145 kts 100°
2026-05-06 18:13 51.47716 -0.54768 760 ft 146 kts 100°
2026-05-06 18:13 51.47730 -0.53166 602 ft 144 kts 101°
2026-05-06 18:13 51.47731 -0.51563 435 ft 143 kts 100°
2026-05-06 18:13 51.47738 -0.49975 250 ft 143 kts 100°
2026-05-06 18:14 51.47755 -0.48390 120 ft 142 kts 100°
2026-05-06 18:14 51.47763 -0.46848 88 ft 126 kts 100°
2026-05-06 18:14 51.47760 -0.45667 83 ft 88 kts 87°
2026-05-06 18:14 51.47756 -0.44940 87 ft 28 kts 111°
2026-05-06 18:15 51.47639 -0.44796 86 ft 0 kts 169°
2026-05-06 18:15 51.47637 -0.44796 85 ft 0 kts 169°
2026-05-06 18:15 51.47635 -0.44795 85 ft 0 kts 169°
2026-05-06 18:15 51.47626 -0.44786 84 ft 4 kts 147°
2026-05-06 18:16 51.47572 -0.44685 85 ft 18 kts 159°
2026-05-06 18:16 51.47485 -0.44590 88 ft 18 kts 139°
2026-05-06 18:16 51.47365 -0.44530 86 ft 17 kts 134°
2026-05-06 18:16 51.47318 -0.44510 83 ft 6 kts 254°
2026-05-06 18:17 51.47299 -0.44571 86 ft 7 kts 223°
2026-05-06 18:17 51.47218 -0.44625 82 ft 23 kts 187°
2026-05-06 18:17 51.47046 -0.44652 82 ft 17 kts 182°
2026-05-06 18:17 51.47020 -0.44612 82 ft 3 kts 159°
2026-05-06 18:18 51.47007 -0.44633 85 ft 4 kts 225°
2026-05-06 18:18 51.46999 -0.44676 82 ft 0 kts 268°
2026-05-06 18:18 51.46999 -0.44680 82 ft 0 kts 268°